#timestamp,LO_Frequency,Hit,StdDev 
1597212965.1,286047016.3,E
1597212975.0,286047008.0,N
1597212975.9,286047008.0,P
1597212995.8,286047000.5,P
1597213015.6,286047000.3,N
1597213035.5,286047000.5,N
1597213055.3,286047001.0,N
1597213075.1,286047000.2,N
1597213095.9,286047000.3,N
1597213115.7,286047000.3,N
1597213135.5,286047000.4,N
1597213155.4,286047001.0,N
1597213175.2,286047000.9,N
1597213195.1,286047000.6,N
1597213196.0,286047000.6,N
1597213215.8,286047000.6,N
1597213235.6,286047000.4,N
1597213255.5,286047000.6,N
1597213275.3,286047001.2,N
1597213295.1,286047001.1,N
1597213315.9,286047000.6,N
1597213335.7,286047000.3,N
1597213355.6,286047000.4,N
1597213375.4,286047000.9,N
1597213395.2,286047000.6,N
1597213415.1,286047000.6,N
1597213416.0,286047000.6,N
1597213435.8,286047000.7,N
1597213455.7,286047000.0,N
1597213475.5,286047000.4,N
1597213495.3,286047000.6,N
1597213515.2,286047000.9,N
1597213535.0,286047000.0,N
1597213535.9,286047000.0,N
1597213555.7,286047000.8,N
1597213575.6,286047000.4,N
1597213595.4,286047000.8,N
1597213615.3,286047000.4,N
1597213635.1,286047000.3,N
1597213636.0,286047000.3,N
1597213655.8,286047000.5,N
1597213675.7,286047000.2,N
1597213695.5,286047000.4,N
1597213715.3,286047000.4,N
1597213735.2,286047000.5,N
1597213755.0,286047000.6,N
1597213755.9,286047000.6,N
1597213775.8,286047000.6,N
1597213795.6,286047000.6,N
1597213815.4,286047000.6,N
1597213835.3,286047000.6,N
1597213855.1,286047000.6,N
1597213875.9,286047000.3,N
1597213895.7,286047000.5,N
1597213915.5,286047000.4,N
1597213935.4,286047000.4,N
1597213955.2,286047000.3,N
1597213975.0,286047000.0,N
1597213975.9,286047000.0,N
1597213995.8,286047000.0,N
1597214015.6,286047000.5,N
1597214035.5,286047000.5,N
1597214055.3,286047000.5,N
1597214075.1,286047000.5,N
1597214095.9,286047000.5,N
1597214115.7,286047000.5,N
1597214135.5,286047000.4,N
1597214155.4,286047000.6,Y
1597214175.2,286047000.7,P
1597214195.1,286047000.4,N
1597214196.0,286047000.4,N
1597214215.8,286047000.8,Y
1597214235.6,286046998.3,P
1597214255.5,286046998.3,N
1597214275.3,286046998.7,N
1597214295.2,286047001.2,N
1597214315.9,286046998.1,N
1597214335.7,286046998.3,N
1597214355.6,286046998.8,N
1597214375.4,286046998.6,N
1597214395.2,286046998.2,N
1597214415.1,286046999.3,N
1597214416.0,286046999.3,N
1597214435.8,286046998.3,N
1597214455.7,286046998.6,N
1597214475.5,286046999.0,N
1597214495.3,286046999.1,N
1597214515.2,286046999.2,N
1597214535.0,286046999.5,N
1597214535.9,286046999.5,N
1597214555.8,286046999.4,N
1597214575.6,286046996.5,Y
1597214595.4,286046998.1,P
1597214615.3,286046998.1,P
1597214635.1,286046998.1,P
1597214655.8,286046998.1,Y
1597214675.6,286047002.2,P
1597214695.4,286047002.7,N
1597214715.3,286046999.7,N
1597214735.1,286046999.8,N
1597214736.0,286046999.8,N
1597214755.8,286047002.4,N
1597214775.7,286046999.9,N
1597214795.5,286046999.9,N
1597214815.3,286047000.3,N
1597214835.2,286047000.5,N
1597214855.0,286047000.4,N
1597214855.9,286047000.4,N
1597214875.8,286046999.9,N
1597214895.6,286047000.9,N
1597214915.4,286046999.9,N
1597214935.3,286047000.3,N
1597214955.1,286047001.0,N
1597214975.8,286047000.7,N
1597214995.7,286047000.8,N
1597215015.5,286047000.7,N
1597215035.4,286047001.2,N
1597215055.2,286047000.9,N
1597215075.0,286047001.1,N
1597215075.9,286047001.1,N
1597215095.8,286047000.9,N
1597215115.6,286047000.9,N
1597215135.4,286047000.7,N
1597215155.3,286047001.0,N
1597215175.1,286047001.1,N
1597215195.9,286046998.1,N
1597215215.7,286046998.2,N
1597215235.5,286047000.9,N
1597215255.4,286046998.2,N
1597215275.2,286046998.1,N
1597215295.1,286047000.8,N
1597215296.0,286047000.8,N
1597215315.8,286046998.3,N
1597215335.6,286046998.3,N
1597215355.5,286046998.7,N
1597215375.3,286046998.8,N
1597215395.1,286046998.9,N
1597215415.9,286046998.9,N
1597215435.7,286046999.3,N
1597215455.6,286046999.1,N
1597215475.4,286046998.7,N
1597215495.2,286046999.5,N
1597215515.1,286046999.5,N
1597215516.0,286046999.5,N
1597215535.8,286046999.2,N
1597215555.7,286046999.5,N
1597215575.5,286046998.9,N
1597215595.3,286046996.5,Y
